This is the latest recevied weather packets stored in our database for station/object N0HOT. If no packets are shown the sender has not sent any weather packets the latest 10 day(s).
| Time | Temp. | Humidity | Pressure | Rain* | Wind** | Luminosity | Snow |
|---|---|---|---|---|---|---|---|
| 1776874124 | 21.11° C | 38% | 1013.6 hPa | 0 mm | - | 705 W/m² | - |
| 1776873820 | 20.56° C | 40% | 1013.6 hPa | 0 mm | - | 720 W/m² | - |
| 1776873517 | 20.56° C | 41% | 1013.6 hPa | 0 mm | - | 706 W/m² | - |
| 1776873212 | 20° C | 44% | 1013.6 hPa | 0 mm | - | 680 W/m² | - |
| 1776872909 | 20° C | 41% | 1013.6 hPa | 0 mm | - | 677 W/m² | - |
| 1776872606 | 20° C | 43% | 1013.6 hPa | 0 mm | - | 675 W/m² | - |
| 1776872303 | 19.44° C | 42% | 1013.2 hPa | 0 mm | - | 663 W/m² | - |
| 1776871997 | 19.44° C | 44% | 1012.5 hPa | 0 mm | - | 661 W/m² | - |
| 1776871695 | 18.89° C | 44% | 1012.8 hPa | 0 mm | - | 661 W/m² | - |
| 1776871394 | 18.89° C | 45% | 1013.2 hPa | 0 mm | - | 626 W/m² | - |
| 1776871091 | 18.89° C | 45% | 1013.2 hPa | 0 mm | - | 605 W/m² | - |
| 1776870789 | 18.33° C | 47% | 1013.2 hPa | 0 mm | - | 612 W/m² | - |
| 1776870487 | 17.78° C | 47% | 1013.2 hPa | 0 mm | - | 599 W/m² | - |
| 1776870181 | 17.78° C | 46% | 1013.9 hPa | 0 mm | - | 580 W/m² | - |
| 1776869881 | 17.22° C | 49% | 1013.9 hPa | 0 mm | - | 511 W/m² | - |
| 1776869578 | 17.22° C | 49% | 1013.9 hPa | 0 mm | - | 421 W/m² | - |
| 1776869273 | 16.67° C | 49% | 1013.9 hPa | 0 mm | - | 191 W/m² | - |
| 1776868970 | 16.67° C | 51% | 1013.9 hPa | 0 mm | - | 363 W/m² | - |
| 1776868666 | 16.67° C | 50% | 1013.9 hPa | 0 mm | - | 343 W/m² | - |
| 1776868362 | 16.11° C | 52% | 1013.9 hPa | 0 mm | - | 233 W/m² | - |
| 1776868059 | 15.56° C | 50% | 1014.3 hPa | 0 mm | - | 454 W/m² | - |
| 1776867755 | 15.56° C | 52% | 1014.3 hPa | 0 mm | - | 278 W/m² | - |
* Rain latest hour (hover to see other rain measurements)
** Current wind speed in m/s (hover to see current wind gust speed)